Location: Monteux
(44.0348°N, 4.9972°E)
Time: 18:16:54
(UTC+00:00)

Cosmos 2228 Rocket - Pass Details

Date: 30 November 2020
Orbit: 618 x 652 km, 82.5° (Epoch: 23 January)

Event Time Altitude Azimuth Distance (km) Brightness Sun altitude
Rises 18:41:24 0° 204° (SSW) 2,950 6.9 -27.8°
Reaches altitude 10° 18:43:45 10° 211° (SSW) 2,041 6.1 -28.2°
Maximum altitude 18:48:03 42° 283° (WNW) 914 4.2 -28.9°
Enters shadow 18:48:55 38° 313° (NW) 984 4.3 -29.1°
